This is the latest recevied weather packets stored in our database for station/object WX5KDM. If no packets are shown the sender has not sent any weather packets the latest 10 day(s).
| Time | Temp. | Humidity | Pressure | Rain* | Wind** | Luminosity | Snow |
|---|---|---|---|---|---|---|---|
| 1777221938 | 26.67° C | 62% | 1013.7 hPa | 0 mm | - | - | - |
| 1777221633 | 26.67° C | 59% | 1013.7 hPa | 0 mm | - | - | - |
| 1777221330 | 26.67° C | 59% | 1013.6 hPa | 0 mm | - | - | - |
| 1777221028 | 26.67° C | 62% | 1013.7 hPa | 0 mm | - | - | - |
| 1777220727 | 26.11° C | 63% | 1013.9 hPa | 0 mm | - | - | - |
| 1777220423 | 26.11° C | 66% | 1013.9 hPa | 0 mm | - | - | - |
| 1777220118 | 26.11° C | 66% | 1014.1 hPa | 0 mm | - | - | - |
| 1777219815 | 26.11° C | 65% | 1014.1 hPa | 0 mm | - | - | - |
| 1777219513 | 26.11° C | 65% | 1013.9 hPa | 0 mm | - | - | - |
| 1777219209 | 25.56° C | 68% | 1014 hPa | 0 mm | - | - | - |
| 1777218904 | 25.56° C | 67% | 1014.1 hPa | 0 mm | - | - | - |
| 1777218601 | 25° C | 70% | 1014 hPa | 0 mm | - | - | - |
| 1777218300 | 25° C | 70% | 1013.9 hPa | 0 mm | - | - | - |
| 1777217999 | 23.89° C | 71% | 1014 hPa | 0 mm | - | - | - |
| 1777217694 | 23.89° C | 71% | 1014 hPa | 0 mm | - | - | - |
| 1777217389 | 24.44° C | 71% | 1014 hPa | 0 mm | - | - | - |
| 1777217086 | 24.44° C | 72% | 1014 hPa | 0 mm | - | - | - |
| 1777216782 | 23.89° C | 73% | 1014 hPa | 0 mm | - | - | - |
| 1777216478 | 23.89° C | 73% | 1013.9 hPa | 0 mm | - | - | - |
| 1777216173 | 23.89° C | 74% | 1013.8 hPa | 0 mm | - | - | - |
| 1777215867 | 23.33° C | 75% | 1013.8 hPa | 0 mm | - | - | - |
| 1777215563 | 23.33° C | 75% | 1013.7 hPa | 0 mm | - | - | - |
| 1777215259 | 23.33° C | 76% | 1013.7 hPa | 0 mm | - | - | - |
| 1777214955 | 23.33° C | 79% | 1013.5 hPa | 0 mm | - | - | - |
| 1777214654 | 22.78° C | 79% | 1013.5 hPa | 0 mm | - | - | - |
* Rain latest hour (hover to see other rain measurements)
** Current wind speed in m/s (hover to see current wind gust speed)